UAL7239 KIAD-KATL

Flight info

Callsign UAL7239
Flight time 1h 20m
Altitude 36000
Route CLTCH3 FLASK OZZZI2
Aircraft A319/M-SDE3FGHIRWY/LB1

Departure

Time 2026-05-03 20:15
Airport Washington Dulles International Airport (KIAD)

Arrival

Time 2026-05-03 21:35
Airport Hartsfield Jackson Atlanta International Airport (KATL)
Time Latitude Longitude Altitude Speed Heading
2026-05-03 20:15 38.93823 -77.47163 300 ft 127 kts 290°
2026-05-03 20:15 38.94174 -77.48341 682 ft 137 kts 291°
2026-05-03 20:15 38.94499 -77.49450 1443 ft 134 kts 289°
2026-05-03 20:15 38.94817 -77.50555 2097 ft 132 kts 288°
2026-05-03 20:16 38.94705 -77.51762 2366 ft 157 kts 241°
2026-05-03 20:16 38.93740 -77.52745 2657 ft 194 kts 216°
2026-05-03 20:16 38.92468 -77.53607 3091 ft 220 kts 211°
2026-05-03 20:16 38.91008 -77.54519 3590 ft 246 kts 210°
2026-05-03 20:17 38.89417 -77.55506 4450 ft 260 kts 210°
2026-05-03 20:17 38.87776 -77.56534 5509 ft 265 kts 210°
2026-05-03 20:17 38.86108 -77.57592 6564 ft 269 kts 210°
2026-05-03 20:17 38.84417 -77.58681 7511 ft 275 kts 211°
2026-05-03 20:18 38.82694 -77.59805 8451 ft 280 kts 212°
2026-05-03 20:18 38.80945 -77.60952 9380 ft 285 kts 212°
2026-05-03 20:18 38.79159 -77.62126 10223 ft 293 kts 213°
2026-05-03 20:18 38.77302 -77.63356 10552 ft 316 kts 212°
2026-05-03 20:19 38.75281 -77.64698 10877 ft 336 kts 212°
2026-05-03 20:19 38.73175 -77.66083 11541 ft 343 kts 212°
2026-05-03 20:19 38.71031 -77.67470 12301 ft 348 kts 210°
2026-05-03 20:19 38.68787 -77.68702 13105 ft 352 kts 207°
2026-05-03 20:20 38.66522 -77.69907 13888 ft 354 kts 208°
2026-05-03 20:20 38.64278 -77.71216 14578 ft 354 kts 212°
2026-05-03 20:20 38.62093 -77.72670 15288 ft 354 kts 215°
2026-05-03 20:20 38.60009 -77.74274 15975 ft 353 kts 219°
2026-05-03 20:21 38.57997 -77.76075 16680 ft 353 kts 223°
2026-05-03 20:21 38.56105 -77.78059 17372 ft 352 kts 227°
2026-05-03 20:21 38.54347 -77.80236 18099 ft 351 kts 232°
2026-05-03 20:21 38.52761 -77.82599 18749 ft 350 kts 237°
2026-05-03 20:22 38.51173 -77.84984 19335 ft 358 kts 229°
2026-05-03 20:22 38.49159 -77.86942 19908 ft 367 kts 222°
2026-05-03 20:22 38.47309 -77.89134 20444 ft 361 kts 235°
2026-05-03 20:22 38.45758 -77.91649 21029 ft 361 kts 240°
2026-05-03 20:23 38.44319 -77.94277 21587 ft 363 kts 242°
2026-05-03 20:23 38.42894 -77.96948 22133 ft 366 kts 242°
2026-05-03 20:23 38.41431 -77.99630 22670 ft 369 kts 242°
2026-05-03 20:23 38.39941 -78.02264 23165 ft 373 kts 241°
2026-05-03 20:24 38.38378 -78.04933 23665 ft 377 kts 240°
2026-05-03 20:24 38.36779 -78.07598 24078 ft 380 kts 240°
2026-05-03 20:24 38.35154 -78.10275 24554 ft 382 kts 240°
2026-05-03 20:24 38.33525 -78.12955 25033 ft 383 kts 240°
2026-05-03 20:25 38.31896 -78.15646 25484 ft 384 kts 240°
2026-05-03 20:25 38.30267 -78.18348 25943 ft 385 kts 240°
2026-05-03 20:25 38.28657 -78.21022 26406 ft 386 kts 240°
2026-05-03 20:25 38.27003 -78.23767 26870 ft 387 kts 240°
2026-05-03 20:26 38.25381 -78.26461 27314 ft 388 kts 240°
2026-05-03 20:26 38.23735 -78.29193 27757 ft 389 kts 240°
2026-05-03 20:26 38.22082 -78.31929 28185 ft 391 kts 240°
2026-05-03 20:26 38.20422 -78.34675 28610 ft 392 kts 240°
2026-05-03 20:27 38.18757 -78.37428 29030 ft 393 kts 240°
2026-05-03 20:27 38.17081 -78.40201 29424 ft 395 kts 240°
2026-05-03 20:27 38.15415 -78.42978 29822 ft 396 kts 240°
2026-05-03 20:27 38.13751 -78.45762 30195 ft 397 kts 240°
2026-05-03 20:28 38.12080 -78.48562 30505 ft 398 kts 240°
2026-05-03 20:28 38.10402 -78.51375 30800 ft 400 kts 240°
2026-05-03 20:28 38.08745 -78.54156 31124 ft 400 kts 240°
2026-05-03 20:28 38.07065 -78.56970 31548 ft 399 kts 240°
2026-05-03 20:29 38.05390 -78.59763 31973 ft 397 kts 240°
2026-05-03 20:29 38.03718 -78.62544 32403 ft 395 kts 240°
2026-05-03 20:29 38.02054 -78.65309 32838 ft 393 kts 240°
2026-05-03 20:29 38.00398 -78.68058 33270 ft 392 kts 240°
2026-05-03 20:30 37.98741 -78.70806 33718 ft 390 kts 240°
2026-05-03 20:30 37.97097 -78.73532 34149 ft 388 kts 240°
2026-05-03 20:30 37.95457 -78.76252 34498 ft 388 kts 240°
2026-05-03 20:30 37.93841 -78.78933 34801 ft 388 kts 240°
2026-05-03 20:31 37.92202 -78.81651 35107 ft 388 kts 240°
2026-05-03 20:31 37.90561 -78.84369 35410 ft 388 kts 240°
2026-05-03 20:31 37.88918 -78.87082 35709 ft 388 kts 239°
2026-05-03 20:31 37.87271 -78.89797 35983 ft 389 kts 239°
2026-05-03 20:32 37.85626 -78.92513 36066 ft 388 kts 239°
2026-05-03 20:32 37.82354 -78.97918 36080 ft 386 kts 239°
2026-05-03 20:33 37.79087 -79.03291 36079 ft 385 kts 239°
2026-05-03 20:33 37.75818 -79.08664 36078 ft 385 kts 239°
2026-05-03 20:34 37.72559 -79.14013 36076 ft 384 kts 239°
2026-05-03 20:34 37.69296 -79.19372 36074 ft 385 kts 239°
2026-05-03 20:35 37.66094 -79.24713 36073 ft 383 kts 240°
2026-05-03 20:35 37.62920 -79.30102 36072 ft 382 kts 240°
2026-05-03 20:36 37.59734 -79.35489 36077 ft 382 kts 240°
2026-05-03 20:36 37.56540 -79.40862 36081 ft 382 kts 240°
2026-05-03 20:37 37.53343 -79.46223 36084 ft 382 kts 240°
2026-05-03 20:37 37.50169 -79.51551 36088 ft 382 kts 240°
2026-05-03 20:38 37.46958 -79.56938 36093 ft 382 kts 239°
2026-05-03 20:38 37.43774 -79.62246 36096 ft 382 kts 239°
2026-05-03 20:39 37.40577 -79.67569 36093 ft 381 kts 239°
2026-05-03 20:39 37.37388 -79.72890 36091 ft 380 kts 239°
2026-05-03 20:40 37.34201 -79.78194 36086 ft 380 kts 239°
2026-05-03 20:40 37.31007 -79.83491 36086 ft 380 kts 239°
2026-05-03 20:41 37.27833 -79.88749 36089 ft 380 kts 239°
2026-05-03 20:41 37.24640 -79.94040 36088 ft 380 kts 239°
2026-05-03 20:42 37.21441 -79.99320 36088 ft 380 kts 239°
2026-05-03 20:42 37.18247 -80.04584 36090 ft 380 kts 239°
2026-05-03 20:43 37.15044 -80.09860 36091 ft 379 kts 239°
2026-05-03 20:43 37.11839 -80.15127 36103 ft 380 kts 239°
2026-05-03 20:44 37.08661 -80.20347 36104 ft 380 kts 239°
2026-05-03 20:44 37.05453 -80.25610 36098 ft 380 kts 239°
2026-05-03 20:45 37.02244 -80.30855 36099 ft 380 kts 238°
2026-05-03 20:45 36.98583 -80.35736 36097 ft 385 kts 233°
2026-05-03 20:46 36.94864 -80.40489 36092 ft 385 kts 233°
2026-05-03 20:46 36.91122 -80.45272 36077 ft 385 kts 233°
2026-05-03 20:47 36.87374 -80.50059 36073 ft 385 kts 233°
2026-05-03 20:47 36.83629 -80.54835 36075 ft 385 kts 232°
2026-05-03 20:48 36.79883 -80.59607 36065 ft 385 kts 232°
2026-05-03 20:48 36.76127 -80.64384 36072 ft 386 kts 232°
2026-05-03 20:49 36.72384 -80.69129 36067 ft 386 kts 232°
2026-05-03 20:49 36.68626 -80.73900 36064 ft 386 kts 232°
2026-05-03 20:50 36.64857 -80.78671 36062 ft 386 kts 232°
2026-05-03 20:50 36.61086 -80.83435 36061 ft 386 kts 232°
2026-05-03 20:51 36.57314 -80.88191 36061 ft 386 kts 232°
2026-05-03 20:51 36.53558 -80.92921 36058 ft 386 kts 232°
2026-05-03 20:52 36.49776 -80.97673 36061 ft 387 kts 232°
2026-05-03 20:52 36.45990 -81.02433 36075 ft 387 kts 232°
2026-05-03 20:53 36.42207 -81.07187 36085 ft 387 kts 232°
2026-05-03 20:53 36.38409 -81.11942 36092 ft 387 kts 231°
2026-05-03 20:54 36.34639 -81.16656 36097 ft 387 kts 232°
2026-05-03 20:54 36.28940 -81.23783 36099 ft 387 kts 231°
2026-05-03 20:55 36.25130 -81.28542 36101 ft 388 kts 231°
2026-05-03 20:55 36.21333 -81.33277 36092 ft 388 kts 231°
2026-05-03 20:56 36.17546 -81.37990 36083 ft 388 kts 231°
2026-05-03 20:56 36.13732 -81.42732 36082 ft 388 kts 231°
2026-05-03 20:57 36.09917 -81.47469 36068 ft 388 kts 231°
2026-05-03 20:57 36.06102 -81.52198 36079 ft 388 kts 231°
2026-05-03 20:58 36.02282 -81.56922 36083 ft 389 kts 231°
2026-05-03 20:58 35.98465 -81.61646 36095 ft 389 kts 231°
2026-05-03 20:59 35.94671 -81.66339 36097 ft 389 kts 231°
2026-05-03 20:59 35.90831 -81.71058 36101 ft 389 kts 231°
2026-05-03 21:00 35.88266 -81.74212 36104 ft 389 kts 231°
2026-05-03 21:00 35.83183 -81.80461 36097 ft 389 kts 231°
2026-05-03 21:01 35.79342 -81.85171 36089 ft 389 kts 231°
2026-05-03 21:01 35.75468 -81.89856 36073 ft 390 kts 230°
2026-05-03 21:02 35.71571 -81.94515 36069 ft 390 kts 230°
2026-05-03 21:02 35.67695 -81.99138 36077 ft 390 kts 230°
2026-05-03 21:03 35.63793 -82.03784 36083 ft 390 kts 230°
2026-05-03 21:03 35.59889 -82.08440 36080 ft 390 kts 230°
2026-05-03 21:04 35.56641 -82.12312 36079 ft 391 kts 230°
2026-05-03 21:04 35.52737 -82.16959 36082 ft 391 kts 230°
2026-05-03 21:05 35.48830 -82.21597 36077 ft 391 kts 230°
2026-05-03 21:05 35.44912 -82.26243 36074 ft 391 kts 229°
2026-05-03 21:06 35.41024 -82.30872 36073 ft 391 kts 230°
2026-05-03 21:06 35.37206 -82.35610 36075 ft 390 kts 231°
2026-05-03 21:07 35.33408 -82.40380 36077 ft 391 kts 231°
2026-05-03 21:07 35.29621 -82.45103 36014 ft 389 kts 230°
2026-05-03 21:08 35.27724 -82.47456 35484 ft 389 kts 230°
2026-05-03 21:08 35.25822 -82.49809 34986 ft 388 kts 230°
2026-05-03 21:08 35.23912 -82.52170 34154 ft 395 kts 230°
2026-05-03 21:08 35.21965 -82.54579 33199 ft 401 kts 230°
2026-05-03 21:09 35.19975 -82.57045 32038 ft 411 kts 230°
2026-05-03 21:09 35.17955 -82.59547 31207 ft 414 kts 230°
2026-05-03 21:09 35.15923 -82.62049 30532 ft 413 kts 230°
2026-05-03 21:09 35.13913 -82.64486 29865 ft 411 kts 229°
2026-05-03 21:10 35.11870 -82.66917 29167 ft 408 kts 228°
2026-05-03 21:10 35.09836 -82.69316 28496 ft 405 kts 228°
2026-05-03 21:10 35.07809 -82.71698 27847 ft 402 kts 228°
2026-05-03 21:10 35.05803 -82.74055 27205 ft 399 kts 228°
2026-05-03 21:11 35.03819 -82.76395 26579 ft 396 kts 228°
2026-05-03 21:11 35.01845 -82.78729 25974 ft 393 kts 228°
2026-05-03 21:11 34.99895 -82.81038 25372 ft 390 kts 228°
2026-05-03 21:11 34.97957 -82.83336 24790 ft 387 kts 229°
2026-05-03 21:12 34.96033 -82.85618 24282 ft 385 kts 228°
2026-05-03 21:12 34.94132 -82.87867 24106 ft 386 kts 228°
2026-05-03 21:12 34.92200 -82.90142 24102 ft 387 kts 228°
2026-05-03 21:12 34.90253 -82.92408 24104 ft 387 kts 227°
2026-05-03 21:13 34.88295 -82.94670 24107 ft 388 kts 227°
2026-05-03 21:13 34.86331 -82.96929 24102 ft 388 kts 227°
2026-05-03 21:13 34.84369 -82.99187 24103 ft 388 kts 227°
2026-05-03 21:13 34.82409 -83.01443 24106 ft 388 kts 227°
2026-05-03 21:14 34.80453 -83.03701 24102 ft 388 kts 227°
2026-05-03 21:14 34.78493 -83.05967 24104 ft 388 kts 227°
2026-05-03 21:14 34.76538 -83.08224 24103 ft 388 kts 227°
2026-05-03 21:14 34.74602 -83.10456 24107 ft 388 kts 227°
2026-05-03 21:15 34.72638 -83.12718 24111 ft 388 kts 227°
2026-05-03 21:15 34.70674 -83.14977 24112 ft 388 kts 227°
2026-05-03 21:15 34.68707 -83.17237 24110 ft 389 kts 227°
2026-05-03 21:15 34.66743 -83.19498 24110 ft 389 kts 227°
2026-05-03 21:16 34.64778 -83.21761 24108 ft 389 kts 227°
2026-05-03 21:16 34.62813 -83.24024 24104 ft 389 kts 227°
2026-05-03 21:16 34.60875 -83.26251 24110 ft 389 kts 227°
2026-05-03 21:16 34.58906 -83.28509 24107 ft 389 kts 227°
2026-05-03 21:17 34.56936 -83.30764 24108 ft 389 kts 227°
2026-05-03 21:17 34.55601 -83.32289 24106 ft 389 kts 227°
2026-05-03 21:17 34.52989 -83.35281 24108 ft 389 kts 227°
2026-05-03 21:17 34.51025 -83.37539 24058 ft 390 kts 227°
2026-05-03 21:18 34.49045 -83.39821 23181 ft 396 kts 227°
2026-05-03 21:18 34.47062 -83.42107 22772 ft 387 kts 227°
2026-05-03 21:18 34.45119 -83.44339 22005 ft 386 kts 227°
2026-05-03 21:18 34.43164 -83.46583 20790 ft 388 kts 226°
2026-05-03 21:19 34.41202 -83.48832 19710 ft 387 kts 226°
2026-05-03 21:19 34.39257 -83.51058 18948 ft 378 kts 226°
2026-05-03 21:19 34.37386 -83.53190 18481 ft 362 kts 226°
2026-05-03 21:19 34.35610 -83.55210 17949 ft 347 kts 226°
2026-05-03 21:20 34.33885 -83.57176 17484 ft 333 kts 226°
2026-05-03 21:20 34.32210 -83.59095 17014 ft 331 kts 226°
2026-05-03 21:20 34.30549 -83.61003 16576 ft 325 kts 226°
2026-05-03 21:20 34.28947 -83.62834 16271 ft 309 kts 226°
2026-05-03 21:21 34.27374 -83.64573 15744 ft 304 kts 225°
2026-05-03 21:21 34.25794 -83.66262 15154 ft 302 kts 224°
2026-05-03 21:21 34.24213 -83.67929 14679 ft 301 kts 224°
2026-05-03 21:21 34.22631 -83.69595 14211 ft 300 kts 224°
2026-05-03 21:22 34.21059 -83.71254 13750 ft 300 kts 224°
2026-05-03 21:22 34.19483 -83.72923 13257 ft 302 kts 224°
2026-05-03 21:22 34.17924 -83.74577 12791 ft 303 kts 224°
2026-05-03 21:22 34.16357 -83.76239 12571 ft 296 kts 224°
2026-05-03 21:23 34.14815 -83.77875 12445 ft 295 kts 224°
2026-05-03 21:23 34.13274 -83.79509 12325 ft 295 kts 224°
2026-05-03 21:23 34.11732 -83.81144 12193 ft 295 kts 224°
2026-05-03 21:23 34.10193 -83.82776 12061 ft 294 kts 224°
2026-05-03 21:24 34.08660 -83.84406 12006 ft 293 kts 224°
2026-05-03 21:24 34.07134 -83.86043 12012 ft 294 kts 224°
2026-05-03 21:24 34.05608 -83.87686 12013 ft 294 kts 224°
2026-05-03 21:24 34.04084 -83.89332 12009 ft 307 kts 225°
2026-05-03 21:25 34.02475 -83.91094 11394 ft 319 kts 225°
2026-05-03 21:25 34.00853 -83.92878 11129 ft 305 kts 225°
2026-05-03 21:25 33.99324 -83.94553 10831 ft 292 kts 225°
2026-05-03 21:25 33.97835 -83.96180 10329 ft 287 kts 225°
2026-05-03 21:26 33.96355 -83.97796 9763 ft 285 kts 225°
2026-05-03 21:26 33.94892 -83.99401 9163 ft 283 kts 225°
2026-05-03 21:26 33.93442 -84.01000 8609 ft 283 kts 225°
2026-05-03 21:26 33.92017 -84.02578 8292 ft 280 kts 225°
2026-05-03 21:27 33.90588 -84.04164 7978 ft 278 kts 225°
2026-05-03 21:27 33.89165 -84.05742 7669 ft 277 kts 225°
2026-05-03 21:27 33.87639 -84.07140 7422 ft 276 kts 207°
2026-05-03 21:27 33.85791 -84.07607 7294 ft 272 kts 180°
2026-05-03 21:28 33.83929 -84.07402 7166 ft 265 kts 174°
2026-05-03 21:28 33.82111 -84.07120 7048 ft 260 kts 174°
2026-05-03 21:28 33.80338 -84.06838 6934 ft 254 kts 174°
2026-05-03 21:28 33.78614 -84.06560 6786 ft 244 kts 174°
2026-05-03 21:29 33.76950 -84.06403 6429 ft 236 kts 191°
2026-05-03 21:29 33.75387 -84.06918 6078 ft 232 kts 202°
2026-05-03 21:29 33.73907 -84.07587 6012 ft 230 kts 204°
2026-05-03 21:29 33.72415 -84.08281 5890 ft 229 kts 204°
2026-05-03 21:30 33.70965 -84.09068 5601 ft 227 kts 219°
2026-05-03 21:30 33.69960 -84.10465 5346 ft 221 kts 241°
2026-05-03 21:30 33.69199 -84.12069 5085 ft 220 kts 244°
2026-05-03 21:30 33.68477 -84.13678 4845 ft 218 kts 243°
2026-05-03 21:31 33.67768 -84.15293 4638 ft 217 kts 244°
2026-05-03 21:31 33.67075 -84.16880 4360 ft 217 kts 244°
2026-05-03 21:31 33.66378 -84.18483 4061 ft 216 kts 244°
2026-05-03 21:31 33.65683 -84.20079 4011 ft 216 kts 244°
2026-05-03 21:32 33.65045 -84.21715 3997 ft 216 kts 256°
2026-05-03 21:32 33.64923 -84.23505 3848 ft 215 kts 271°
2026-05-03 21:32 33.64936 -84.25291 3573 ft 214 kts 271°
2026-05-03 21:32 33.64944 -84.27093 3280 ft 217 kts 271°
2026-05-03 21:33 33.64947 -84.28882 3015 ft 213 kts 271°
2026-05-03 21:33 33.64949 -84.30649 2731 ft 211 kts 271°
2026-05-03 21:33 33.64950 -84.32355 2447 ft 198 kts 271°
2026-05-03 21:33 33.64951 -84.33919 2231 ft 179 kts 271°
2026-05-03 21:34 33.64951 -84.35353 1982 ft 163 kts 271°
2026-05-03 21:34 33.64951 -84.36601 1762 ft 139 kts 271°
2026-05-03 21:34 33.64951 -84.37722 1547 ft 129 kts 271°
2026-05-03 21:34 33.64960 -84.38789 1364 ft 127 kts 270°
2026-05-03 21:35 33.64959 -84.39849 1261 ft 126 kts 269°
2026-05-03 21:35 33.64957 -84.40895 1099 ft 124 kts 269°
2026-05-03 21:35 33.64950 -84.41855 1035 ft 95 kts 270°
2026-05-03 21:35 33.64949 -84.42290 1036 ft 22 kts 256°
2026-05-03 21:36 33.64816 -84.42339 1035 ft 19 kts 180°
2026-05-03 21:36 33.64787 -84.42339 1035 ft 1 kts 180°
2026-05-03 21:36 33.64762 -84.42339 1035 ft 7 kts 180°
2026-05-03 21:36 33.64684 -84.42338 1034 ft 15 kts 179°
2026-05-03 21:37 33.64578 -84.42340 1034 ft 11 kts 179°
2026-05-03 21:37 33.64541 -84.42406 1035 ft 13 kts 275°
2026-05-03 21:37 33.64543 -84.42536 1035 ft 17 kts 268°
2026-05-03 21:37 33.64541 -84.42690 1035 ft 19 kts 270°
2026-05-03 21:38 33.64542 -84.42856 1036 ft 21 kts 270°
2026-05-03 21:38 33.64543 -84.43038 1036 ft 22 kts 270°
2026-05-03 21:38 33.64544 -84.43222 1036 ft 23 kts 270°
2026-05-03 21:38 33.64544 -84.43414 1036 ft 24 kts 269°
2026-05-03 21:39 33.64541 -84.43620 1036 ft 26 kts 269°
2026-05-03 21:39 33.64522 -84.43846 1035 ft 26 kts 261°
2026-05-03 21:39 33.64492 -84.44056 1035 ft 23 kts 248°
2026-05-03 21:39 33.64363 -84.44118 1035 ft 13 kts 179°
2026-05-03 21:40 33.64274 -84.44117 1035 ft 6 kts 180°
2026-05-03 21:40 33.64262 -84.44122 1036 ft 3 kts 208°
2026-05-03 21:40 33.64256 -84.44160 1036 ft 7 kts 274°
2026-05-03 21:40 33.64256 -84.44195 1036 ft 3 kts 269°
2026-05-03 21:41 33.64256 -84.44203 1036 ft 0 kts 269°